Regional Weather Roundup
Issued by NWS

Home | Current Version | Previous Version | Graphics & Text | Print | Product List | Glossary On
Versions: 1 2 3 4 5 6 7 8 9 10 11 12 13 14 15 16 17 18 19 20 21 22 23 24 25 26 27 28 29 30 31 32 33 34 35 36 37 38 39 40 41 42 43 44 45 46 47 48 49 50
000
ASUS43 KLMK 200702
RWRKY
KENTUCKY REGIONAL WEATHER ROUNDUP
NATIONAL WEATHER SERVICE LOUISVILLE KY
200 AM EST SAT DEC 20 2014

NOTE "FAIR" INDICATES FEW OR NO CLOUDS BELOW 12,000 FEET
WITH NO SIGNIFICANT WEATHER AND/OR OBSTRUCTIONS TO VISIBILITY.

KYZ001>023-026-027-061>063-070>075-200800-
WESTERN AND SOUTH CENTRAL KENTUCKY

CITY           SKY/WX    TMP DP  RH WIND       PRES   REMARKS
PADUCAH        CLOUDY    35  28  75 NE6       30.25F WCI  30
HENDERSON      CLOUDY    32  25  74 E7        30.27F WCI  26
OWENSBORO      MIX PCPN  32  25  76 NE5       30.28S WCI  27
HOPKINSVILLE   MOCLDY    32  27  81 N6        30.23F WCI  26
BOWLING GREEN  CLOUDY    33  24  69 NE5       30.25S WCI  29
GLASGOW        NOT AVBL
$$

KYZ024-025-028>034-038-045-046-053-200800-
NORTH CENTRAL KENTUCKY

CITY           SKY/WX    TMP DP  RH WIND       PRES   REMARKS
LOUISVILLE/SDF CLOUDY    30  22  72 E3        30.27F
LOUISVILLE/LOU CLOUDY    30  21  69 CALM      30.28S
FORT KNOX      CLOUDY    29  22  77 VRB3      30.24F
$$

KYZ035>037-039>044-047>052-055>060-089>105-200800-
NORTHEAST KENTUCKY

CITY           SKY/WX    TMP DP  RH WIND       PRES   REMARKS
LEXINGTON      CLOUDY    28  22  78 NE3       30.24S
COVINGTON      CLOUDY    30  21  69 SE6       30.25S WCI  24
FRANKFORT      CLOUDY    27  22  81 N3        30.26R
$$

KYZ054-064>069-076>088-106>120-200800-
SOUTHEAST KENTUCKY

CITY           SKY/WX    TMP DP  RH WIND       PRES   REMARKS
JACKSON        MOCLDY    27  21  78 VRB3      30.18F
LONDON         CLOUDY    30  23  75 N6        30.19F WCI  24
SOMERSET       NOT AVBL
MIDDLESBORO    NOT AVBL
MONTICELLO     CLOUDY    31  26  81 NE6       30.22F WCI  25
$$



USA.gov is the U.S. government's official web portal to all federal, state and local government web resources and services.